Regional Weather Roundup
Issued by NWS

Home | Current Version | Previous Version | Text Only | Print | Product List | Glossary Off
Versions: 1 2 3 4 5 6 7 8 9 10 11 12 13 14 15 16 17 18 19 20 21 22 23 24 25 26 27 28 29 30 31 32 33 34 35 36 37 38 39 40 41 42 43 44 45 46 47 48 49 50

000
ASUS43 KLOT 211510
RWRIL

ILLINOIS REGIONAL WEATHER ROUNDUP
NATIONAL WEATHER SERVICE CHICAGO/ROMEOVILLE IL
1000 AM CDT THU AUG 21 2014

NOTE: "FAIR" INDICATES FEW OR NO CLOUDS BELOW 12,000 FEET WITH NO
SIGNIFICANT WEATHER AND/OR OBSTRUCTIONS TO VISIBILITY.

* THESE STATIONS ARE NOT UNDER NWS QUALITY CONTROL. THEY ALSO MAY NOT
  REPORT WEATHER SUCH AS PRECIPITATION OR FOG.

ILZ001-002-007-009-015-016-024-211600-
NORTHWEST ILLINOIS

CITY           SKY/WX    TMP DP  RH WIND       PRES   REMARKS
MOLINE         CLOUDY    77  70  79 E5        29.92R
STERLING*      CLOUDY    73  70  88 S6        29.95S
SAVANNA*       TSTM      72  70  92 SE13      29.91F
$$

ILZ003-004-008-010-011-017-018-211600-
NORTH CENTRAL ILLINOIS

CITY           SKY/WX    TMP DP  RH WIND       PRES   REMARKS
ROCKFORD       LGT RAIN  73  70  90 S9        29.95S
FREEPORT*      CLOUDY    73  71  93 S9        29.96S THUNDER
ROCHELLE*      CLOUDY    73  70  92 S9        29.95F
PERU*          CLOUDY    75  71  88 SE7       29.97F
$$

ILZ005-006-012>014-019>023-211600-
NORTHEAST ILLINOIS

CITY           SKY/WX    TMP DP  RH WIND       PRES   REMARKS
CHICAGO-OHARE  CLOUDY    72  68  87 S9        29.93F
CHICAGO-MIDWAY CLOUDY    74  72  93 S7        29.95F
AURORA         CLOUDY    74  70  87 S9        29.95S FOG
LANSING*       LGT RAIN  71  70  96 S8        29.96F
JOLIET*        CLOUDY    72  69  92 S9        29.97S
WAUKEGAN       CLOUDY    73  69  87 SE3       29.93F
DUPAGE AIRPORT CLOUDY    73  71  93 S9        29.94F
KANKAKEE*      CLOUDY    73  71  96 SE6       29.99F
WHEELING       CLOUDY    74  71  91 S6        29.95F
MORRIS*        CLOUDY    74  74  97 S7        29.96F
ROMEOVILLE*    CLOUDY    72  72 100 S10       29.96S
NORTHERLY ISL    N/A     72  69  90 S6          N/A
$$

LMZ740>746-211600-
SOUTHERN LAKE MICHIGAN

STATION/POSITION SKY/WX   TEMP    WIND        PRES    VSBY  WAVE
                          AIR SEA DIR/SP/G                  HT/PER
                          (F)     (DEG/KT/KT) (MB)    (MI)  (FT/S)
SOUTHERN BUOY              69 68  190/  4/  6 1015.3R         0
WAUKEGAN HARBOR            72     110/  6/  8   N/A
HARRISON CRIB              71     150/ 14/ 17   N/A
BURNHAM HARBOR             72     190/  5/  9   N/A
CALUMET HARBOR             72     180/  2/  4 1013.0F
BURNS HARBOR               72     240/  9/ 18   N/A
MICHIGAN CITY              71     180/  6/  8   N/A
MICHIGAN CITY 6N           71 70  190/  2/  6   N/A           1/ 2
ST. JOSEPH                 71 71  210/  8/ 10   N/A           1/ 3
$$

ILZ025>027-034>036-040-047-049-050-058-095>099-211600-
WEST-CENTRAL ILLINOIS

CITY           SKY/WX    TMP DP  RH WIND       PRES   REMARKS
QUINCY         MOSUNNY   82  71  69 SW13G23   29.95S HX  86
GALESBURG*     PTSUNNY   80  73  78 S9        29.94R HX  84
MACOMB*        PTSUNNY   78  72  80 SW9       29.96S HX  80
JACKSONVILLE*  PTSUNNY   82  73  73 SW9       29.99R HX  87
PITTSFIELD*    MOSUNNY   82  71  68 SW7       29.99R HX  87
$$

ILZ028>032-037-038-041>044-048-051>054-059>061-211600-
CENTRAL ILLINOIS

CITY           SKY/WX    TMP DP  RH WIND       PRES   REMARKS
PONTIAC        CLOUDY    77  73  88 SE3       29.98S
DECATUR        MOSUNNY   82  72  71 SW17      30.00S HX  87
PEORIA         CLOUDY    79  71  76 S9        29.96R HX  82
LACON*         CLOUDY    77  71  83 E6        29.95S
LINCOLN*       PTSUNNY   83  71  68 SW6       29.96R HX  87
SPRINGFIELD    PTSUNNY   81  71  71 SW9       29.99R HX  85
TAYLORVILLE    PTSUNNY   79  72  78 SW8       30.01S HX  82
$$

ILZ033-039-045-046-055>057-062-063-211600-
EAST-CENTRAL ILLINOIS

CITY           SKY/WX    TMP DP  RH WIND       PRES   REMARKS
CHAMPAIGN      PTSUNNY   81  74  79 SW10      30.01R HX  86
DANVILLE*      RAIN      76  73  90 W3        29.99R
RANTOUL*       CLOUDY    80  72  76 SW5       30.01R HX  83
MATTOON        MOSUNNY   79  72  79 SW7       30.02S HX  82
PARIS*         PTSUNNY   81  74  80 SW8       30.02S THUNDER HX  86
$$

ILZ079-100>102-211600-
SOUTHWEST ILLINOIS

CITY           SKY/WX    TMP DP  RH WIND       PRES   REMARKS
ALTON          PTSUNNY   82  77  83 SW14      30.01S HX  91
BELLEVILLE     MOSUNNY   84  76  78 VRB3      30.01R HX  92
CAHOKIA*         N/A    N/A N/A N/A MISG      30.01R
SPARTA*        SUNNY     82  74  77 SW9       30.05R HX  88
$$

ILZ064>066-069>071-074>076-080>082-084>086-088>090-092>094-211600-
SOUTH-CENTRAL ILLINOIS

CITY           SKY/WX    TMP DP  RH WIND       PRES   REMARKS
CARBONDALE     SUNNY     84  73  69 SW10      30.05R HX  90
CAIRO*         SUNNY     86  73  64 SW6       30.07S HX  94
MARION         MOSUNNY   84  75  74 SW12      30.07R HX  92
MT. VERNON     SUNNY     84  73  70 SW12      30.06R HX  91
CENTRALIA*     MOSUNNY   90  74  58 SW7       30.04R HX  99
SALEM*         MOSUNNY   85  76  75 SW10      30.03S HX  94
$$

ILZ067-068-072-073-078-083-087-091-211600-
SOUTHEAST ILLINOIS

CITY           SKY/WX    TMP DP  RH WIND       PRES   REMARKS
LAWRENCEVILLE  CLOUDY    80  74  81 SW7       30.05R HX  85
FLORA*         MOSUNNY   81  74  80 SW7       30.04S HX  86
FAIRFIELD*     SUNNY     84  79  84 SW12G17   30.05R HX  96
HARRISBURG*    SUNNY     84  75  74 SW10      30.07S HX  91
ROBINSON*      PTSUNNY   82  75  81 SW7       30.04S HX  88
CARMI*         MOSUNNY   84  77  79 SW8       30.05S HX  94
$$

ABBREVIATIONS USED IN REMARKS
   TC - TEMPERATURE IN CELSIUS
  WCI - WIND CHILL INDEX
   HX - HEAT INDEX
  VSB - VISIBILITY
$$



USA.gov is the U.S. government's official web portal to all federal, state and local government web resources and services.